When you browse on this site, cookies collect data to enhance your experience and personalize the content and advertising you see.
Visit our Privacy Policy to learn more. By continuing to use the site, you agree to this use of cookies and data.
  • în România
  • Lista ţărilor
  • Pe 7 zile
  • Temperatura apei
  • Meteo pe hartă
  • Widget-uri
  • user-avatar
    Intrare

    Meteo pe oră la Palembang

    Astăzi, 6 Aprilie, Luni

    Timp Temperatura Precipitaţii Vânt Presiune Umiditate
    00:00 +26°C° 1.1 mm 2 m/s 758 mmHg 97%
    01:00 +26°C° 0 mm 1 m/s 758 mmHg 97%
    02:00 +26°C° 0.8 mm 2 m/s 758 mmHg 97%
    03:00 +26°C° 0.8 mm 2 m/s 757 mmHg 97%
    04:00 +25°C° 0.8 mm 2 m/s 757 mmHg 97%
    05:00 +25°C° 0.2 mm 2 m/s 757 mmHg 97%
    06:00 +25°C° 0.2 mm 2 m/s 758 mmHg 97%
    07:00 +26°C° 0 mm 1 m/s 758 mmHg 97%
    08:00 +27°C° 0 mm 1 m/s 758 mmHg 93%
    09:00 +28°C° 0 mm 1 m/s 758 mmHg 88%
    10:00 +29°C° 0 mm 1 m/s 758 mmHg 84%
    11:00 +31°C° 0 mm 1 m/s 757 mmHg 75%
    12:00 +32°C° 0 mm 1 m/s 756 mmHg 65%
    13:00 +34°C° 0 mm 1 m/s 756 mmHg 54%
    14:00 +34°C° 0 mm 1 m/s 755 mmHg 55%
    15:00 +34°C° 0 mm 1 m/s 755 mmHg 56%
    16:00 +34°C° 0 mm 1 m/s 754 mmHg 57%
    17:00 +32°C° 0 mm 1 m/s 755 mmHg 64%
    18:00 +30°C° 0 mm 1 m/s 755 mmHg 70%
    19:00 +28°C° 0 mm 1 m/s 756 mmHg 76%
    20:00 +28°C° 0.3 mm 1 m/s 756 mmHg 79%
    21:00 +27°C° 0.3 mm 1 m/s 757 mmHg 81%
    22:00 +27°C° 0.3 mm 1 m/s 758 mmHg 83%
    23:00 +26°C° 1.6 mm 1 m/s 757 mmHg 87%

    Mâine, 7 Aprilie, Marţi

    Timp Temperatura Precipitaţii Vânt Presiune Umiditate
    00:00 +26°C° 1.6 mm 1 m/s 757 mmHg 92%
    01:00 +25°C° 1.6 mm 1 m/s 757 mmHg 96%
    02:00 +25°C° 1.3 mm 1 m/s 757 mmHg 96%
    03:00 +25°C° 1.3 mm 1 m/s 756 mmHg 97%
    04:00 +23°C° 1.3 mm 0 m/s 756 mmHg 97%
    05:00 +24°C° 0.1 mm 0 m/s 756 mmHg 96%
    06:00 +24°C° 0.1 mm 0 m/s 757 mmHg 95%
    07:00 +24°C° 0.1 mm 0 m/s 757 mmHg 94%
    08:00 +26°C° 0 mm 0 m/s 757 mmHg 87%
    09:00 +28°C° 0 mm 0 m/s 758 mmHg 79%
    10:00 +30°C° 0 mm 0 m/s 758 mmHg 71%
    11:00 +32°C° 0.1 mm 1 m/s 757 mmHg 70%
    12:00 +33°C° 0.1 mm 1 m/s 756 mmHg 68%
    13:00 +34°C° 0.1 mm 2 m/s 755 mmHg 66%
    14:00 +33°C° 0.3 mm 1 m/s 755 mmHg 65%
    15:00 +33°C° 0.3 mm 1 m/s 754 mmHg 64%
    16:00 +33°C° 0.3 mm 1 m/s 754 mmHg 63%
    17:00 +32°C° 0.4 mm 1 m/s 754 mmHg 71%
    18:00 +30°C° 0.4 mm 1 m/s 755 mmHg 80%
    19:00 +28°C° 0.4 mm 1 m/s 755 mmHg 88%
    20:00 +28°C° 0.8 mm 1 m/s 756 mmHg 89%
    21:00 +28°C° 0.8 mm 1 m/s 757 mmHg 91%
    22:00 +27°C° 0.8 mm 1 m/s 757 mmHg 92%
    23:00 +27°C° 2.1 mm 1 m/s 757 mmHg 93%

    Poimâine, 8 Aprilie, Miercuri

    Timp Temperatura Precipitaţii Vânt Presiune Umiditate
    00:00 +27°C° 2.1 mm 1 m/s 757 mmHg 93%
    01:00 +27°C° 2.1 mm 1 m/s 756 mmHg 94%
    02:00 +26°C° 0.5 mm 1 m/s 756 mmHg 95%
    03:00 +26°C° 0.5 mm 1 m/s 756 mmHg 96%
    04:00 +26°C° 0.5 mm 1 m/s 756 mmHg 97%
    05:00 +24°C° 0 mm 0 m/s 756 mmHg 96%
    06:00 +24°C° 0 mm 0 m/s 757 mmHg 95%
    07:00 +24°C° 0 mm 0 m/s 757 mmHg 94%
    08:00 +25°C° 0.6 mm 0 m/s 757 mmHg 91%
    09:00 +27°C° 0.6 mm 0 m/s 757 mmHg 88%
    10:00 +30°C° 0.6 mm 1 m/s 758 mmHg 85%
    11:00 +30°C° 0.8 mm 1 m/s 757 mmHg 83%
    12:00 +31°C° 0.8 mm 1 m/s 756 mmHg 81%
    13:00 +31°C° 0.8 mm 1 m/s 756 mmHg 79%
    14:00 +31°C° 0.7 mm 1 m/s 755 mmHg 80%
    15:00 +30°C° 0.7 mm 1 m/s 755 mmHg 82%
    16:00 +30°C° 0.7 mm 1 m/s 755 mmHg 84%
    17:00 +29°C° 0 mm 1 m/s 755 mmHg 87%
    18:00 +28°C° 0 mm 1 m/s 756 mmHg 90%
    19:00 +27°C° 0 mm 1 m/s 756 mmHg 92%
    20:00 +27°C° 0.2 mm 1 m/s 757 mmHg 92%
    21:00 +27°C° 0.2 mm 1 m/s 757 mmHg 92%
    22:00 +25°C° 0.2 mm 0 m/s 758 mmHg 92%
    23:00 +25°C° 0.7 mm 0 m/s 757 mmHg 93%

    9 Aprilie, Joi

    Timp Temperatura Precipitaţii Vânt Presiune Umiditate
    00:00 +24°C° 0.7 mm 0 m/s 757 mmHg 94%
    01:00 +24°C° 0.7 mm 0 m/s 757 mmHg 95%
    02:00 +24°C° 0.2 mm 0 m/s 757 mmHg 95%
    03:00 +24°C° 0.2 mm 0 m/s 756 mmHg 95%
    04:00 +24°C° 0.2 mm 0 m/s 756 mmHg 95%
    05:00 +24°C° 0 mm 0 m/s 756 mmHg 94%
    06:00 +25°C° 0 mm 0 m/s 757 mmHg 93%
    07:00 +25°C° 0 mm 0 m/s 758 mmHg 92%
    08:00 +27°C° 0.3 mm 0 m/s 758 mmHg 85%
    09:00 +29°C° 0.3 mm 0 m/s 758 mmHg 77%
    10:00 +33°C° 0.3 mm 1 m/s 758 mmHg 69%
    11:00 +33°C° 0.6 mm 1 m/s 757 mmHg 68%
    12:00 +33°C° 0.6 mm 1 m/s 756 mmHg 67%
    13:00 +33°C° 0.6 mm 1 m/s 755 mmHg 66%
    14:00 +33°C° 1.6 mm 1 m/s 755 mmHg 72%
    15:00 +32°C° 1.6 mm 1 m/s 755 mmHg 77%
    16:00 +31°C° 1.6 mm 1 m/s 754 mmHg 83%
    17:00 +30°C° 0.5 mm 1 m/s 755 mmHg 86%
    18:00 +29°C° 0.5 mm 1 m/s 756 mmHg 89%
    19:00 +28°C° 0.5 mm 1 m/s 756 mmHg 92%
    20:00 +27°C° 0.1 mm 1 m/s 757 mmHg 93%
    21:00 +27°C° 0.1 mm 1 m/s 757 mmHg 94%
    22:00 +27°C° 0.1 mm 1 m/s 758 mmHg 95%
    23:00 +27°C° 0.8 mm 1 m/s 757 mmHg 95%

    10 Aprilie, Vineri

    Timp Temperatura Precipitaţii Vânt Presiune Umiditate
    00:00 +27°C° 0.8 mm 1 m/s 757 mmHg 95%
    01:00 +27°C° 0.8 mm 1 m/s 757 mmHg 95%
    02:00 +25°C° 1.5 mm 0 m/s 757 mmHg 95%
    03:00 +25°C° 1.5 mm 0 m/s 757 mmHg 94%
    04:00 +25°C° 1.5 mm 0 m/s 756 mmHg 94%
    05:00 +26°C° 0.8 mm 1 m/s 757 mmHg 95%
    06:00 +26°C° 0.8 mm 1 m/s 757 mmHg 95%
    07:00 +26°C° 0.8 mm 1 m/s 758 mmHg 96%
    08:00 +27°C° 0.2 mm 1 m/s 758 mmHg 93%
    09:00 +28°C° 0.2 mm 1 m/s 758 mmHg 90%
    10:00 +29°C° 0.2 mm 1 m/s 759 mmHg 86%
    11:00 +30°C° 1 mm 1 m/s 758 mmHg 82%
    12:00 +31°C° 1 mm 1 m/s 757 mmHg 77%
    13:00 +32°C° 1 mm 1 m/s 756 mmHg 73%
    14:00 +32°C° 1.5 mm 1 m/s 756 mmHg 75%
    15:00 +32°C° 1.5 mm 1 m/s 755 mmHg 76%
    16:00 +31°C° 1.5 mm 1 m/s 755 mmHg 78%
    17:00 +30°C° 0.5 mm 1 m/s 756 mmHg 83%
    18:00 +29°C° 0.5 mm 1 m/s 756 mmHg 87%
    19:00 +27°C° 0.5 mm 1 m/s 757 mmHg 92%
    20:00 +27°C° 0.2 mm 1 m/s 757 mmHg 92%
    21:00 +27°C° 0.2 mm 1 m/s 758 mmHg 93%
    22:00 +25°C° 0.2 mm 0 m/s 758 mmHg 93%
    23:00 +25°C° 1.2 mm 0 m/s 758 mmHg 93%

    11 Aprilie, Sâmbătă

    Timp Temperatura Precipitaţii Vânt Presiune Umiditate
    00:00 +25°C° 1.2 mm 0 m/s 758 mmHg 93%
    01:00 +25°C° 1.2 mm 0 m/s 758 mmHg 93%
    02:00 +26°C° 1.5 mm 1 m/s 757 mmHg 94%
    03:00 +26°C° 1.5 mm 1 m/s 757 mmHg 95%
    04:00 +26°C° 1.5 mm 1 m/s 757 mmHg 96%
    05:00 +26°C° 0 mm 1 m/s 757 mmHg 96%
    06:00 +26°C° 0 mm 1 m/s 757 mmHg 96%
    07:00 +24°C° 0 mm 0 m/s 758 mmHg 95%
    08:00 +27°C° 0 mm 1 m/s 758 mmHg 91%
    09:00 +28°C° 0 mm 1 m/s 758 mmHg 86%
    10:00 +29°C° 0 mm 1 m/s 758 mmHg 82%
    11:00 +29°C° 0 mm 1 m/s 758 mmHg 80%
    12:00 +30°C° 0 mm 1 m/s 757 mmHg 79%
    13:00 +30°C° 0 mm 1 m/s 756 mmHg 78%
    14:00 +30°C° 0 mm 1 m/s 755 mmHg 77%
    15:00 +30°C° 0 mm 1 m/s 755 mmHg 76%
    16:00 +30°C° 0 mm 1 m/s 755 mmHg 76%
    17:00 +29°C° 0.6 mm 1 m/s 755 mmHg 80%
    18:00 +29°C° 0.6 mm 1 m/s 756 mmHg 85%
    19:00 +28°C° 0.6 mm 1 m/s 756 mmHg 90%
    20:00 +27°C° 1.1 mm 1 m/s 757 mmHg 91%
    21:00 +25°C° 1.1 mm 0 m/s 757 mmHg 92%
    22:00 +25°C° 1.1 mm 0 m/s 758 mmHg 93%
    23:00 +25°C° 0.8 mm 0 m/s 758 mmHg 94%
    Arată mai mult